Mattoon, IL

9:04 PM CDT on August 22, 2019 (GMT -0500)
Coles County Memorial

Weather History for KMTO - June, 2019

Change the Weather History Date:

Tuesday, June 11, 2019

  Actual Average Record
Temperature  
Mean Temperature 66 °F 71 °F  
Max Temperature 81 °F 81 °F 96 °F (1954)
Min Temperature 50 °F 61 °F 35 °F (2007)
Degree Days  
Heating Degree Days 0 1  
Month to date heating degree days 0 13  
Since 1 June heating degree days 0 13  
Since 1 July heating degree days 5517 5403  
Cooling Degree Days 1 6  
Month to date cooling degree days 78 59  
Year to date cooling degree days 203 147  
Since 1 June cooling degree days 78 59  
Growing Degree Days 16 (Base 50)    
Moisture  
Dew Point 45 °F    
Average Humidity 55    
Maximum Humidity 86    
Minimum Humidity 23    
Precipitation  
Precipitation 0.00 in 0.14 in 2.66 in (1971)
Month to date precipitation 0.01 1.83  
Year to date precipitation 11.64 16.18  
Sea Level Pressure  
Sea Level Pressure 30.14 in    
Wind  
Wind Speed 6 mph (SSE)    
Max Wind Speed 14 mph    
Max Gust Speed 19 mph    
Visibility 10 miles    
Events Rain    
T = Trace of Precipitation, MM = Missing Value Source: NWS Daily Summary

Daily Weather History Graph

Daily Weather History Graph

Search for Another Location

Airport or City:

Astronomy

Jun. 11, 2019 Rise Set
Actual Time 5:25 AM CDT 8:20 PM CDT
Civil Twilight 4:53 AM CDT 8:52 PM CDT
Nautical Twilight 4:12 AM CDT 9:33 PM CDT
Astronomical Twilight 3:25 AM CDT 10:20 PM CDT
Moon 2:21 PM CDT (6/11) 2:07 AM CDT (6/11)
Length of Visible Light 15h 59m
Length of Day
14h 54m
Waxing Gibbous, 66% of the Moon is Illuminated
Jun 11
Waxing Gibbous
Jun 17
Full
Jun 25
Last Quarter
Jul 2
New
Jul 9
First Quarter

Hourly Weather History & Observations

Time (CDT) Temp. Dew Point Humidity Pressure Visibility Wind Dir Wind Speed Gust Speed Precip Events Conditions
12:53 AM 59.0 °F 46.0 °F 62% 30.18 in 10.0 mi Calm Calm - N/A   Clear
1:53 AM 57.0 °F 46.9 °F 69% 30.18 in 10.0 mi Calm Calm - N/A   Clear
2:53 AM 53.1 °F 46.9 °F 80% 30.19 in 10.0 mi Calm Calm - N/A   Clear
3:53 AM 57.9 °F 44.1 °F 60% 30.19 in 10.0 mi Calm Calm - N/A   Clear
4:53 AM 54.0 °F 46.9 °F 77% 30.20 in 10.0 mi Calm Calm - N/A   Clear
5:53 AM 50.0 °F 46.9 °F 89% 30.22 in 10.0 mi SSE 5.8 mph - N/A   Clear
6:53 AM 60.1 °F 51.1 °F 72% 30.22 in 10.0 mi Calm Calm - N/A   Clear
7:53 AM 66.0 °F 51.1 °F 59% 30.22 in 10.0 mi Calm Calm - N/A   Clear
8:53 AM 69.1 °F 46.0 °F 44% 30.22 in 10.0 mi South 8.1 mph - N/A   Clear
9:53 AM 72.0 °F 48.9 °F 44% 30.22 in 10.0 mi SSE 10.4 mph - N/A   Clear
10:53 AM 75.0 °F 48.9 °F 40% 30.20 in 8.0 mi SSW 8.1 mph - N/A   Clear
11:53 AM 75.9 °F 46.0 °F 35% 30.18 in 8.0 mi SSE 8.1 mph - N/A   Clear
12:53 PM 78.1 °F 45.0 °F 31% 30.16 in 10.0 mi SE 8.1 mph - N/A   Clear
1:53 PM 78.1 °F 41.0 °F 27% 30.13 in 10.0 mi SSW 5.8 mph - N/A   Clear
2:53 PM 80.1 °F 43.0 °F 27% 30.11 in 10.0 mi SSE 6.9 mph - N/A   Clear
3:53 PM 81.0 °F 39.0 °F 22% 30.09 in 10.0 mi SE 9.2 mph - N/A   Partly Cloudy
4:53 PM 80.1 °F 39.0 °F 23% 30.07 in 10.0 mi East 3.5 mph - N/A   Clear
5:53 PM 79.0 °F 42.1 °F 27% 30.06 in 10.0 mi SE 9.2 mph - N/A   Clear
6:53 PM 77.0 °F 42.1 °F 29% 30.05 in 10.0 mi SE 11.5 mph - N/A   Clear
7:53 PM 72.0 °F 45.0 °F 38% 30.06 in 10.0 mi SE 6.9 mph - N/A   Clear
8:53 PM 68.0 °F 45.0 °F 43% 30.06 in 10.0 mi SE 5.8 mph - N/A   Clear
9:53 PM 66.0 °F 46.0 °F 48% 30.07 in 10.0 mi SSE 6.9 mph - N/A   Clear
10:53 PM 66.0 °F 46.9 °F 50% 30.07 in 10.0 mi South 5.8 mph - N/A   Clear
11:53 PM 64.0 °F 46.9 °F 54% 30.06 in 10.0 mi SSE 5.8 mph - 0.00 in Rain Light Rain